Erie, PA

2:04 AM EDT on July 26, 2017 (GMT -0400)
Erie International

Weather History for KERI - September, 2014

Change the Weather History Date:

Saturday, September 6, 2014

  Actual Average Record
Temperature  
Mean Temperature 66 °F 67 °F  
Max Temperature 70 °F 75 °F 93 °F (2007)
Min Temperature 62 °F 59 °F 43 °F (1950)
Degree Days  
Heating Degree Days 0 1  
Month to date heating degree days 0 6  
Since 1 July heating degree days 18 24  
Cooling Degree Days 1 4  
Month to date cooling degree days 54 24  
Year to date cooling degree days 570 582  
Growing Degree Days 17 (Base 50)    
Moisture  
Dew Point 59 °F    
Average Humidity 71    
Maximum Humidity 90    
Minimum Humidity 52    
Precipitation  
Precipitation 0.13 in 0.13 in 1.44 in (1990)
Month to date precipitation 0.79 0.79  
Year to date precipitation 28.50 26.62  
Snow  
Snow 0.00 in 0.00 in - ()
Month to date snowfall 0.0 0.0  
Since 1 July snowfall 0.0 0.0  
Since 1 September snowfall 0.0 0.0  
Snow Depth 0.00 in    
Sea Level Pressure  
Sea Level Pressure 30.01 in    
Wind  
Wind Speed 8 mph (WNW)    
Max Wind Speed 15 mph    
Max Gust Speed 21 mph    
Visibility 9 miles    
Events Rain , Thunderstorm    
T = Trace of Precipitation, MM = Missing Value Source: NWS Daily Summary

Daily Weather History Graph

Daily Weather History Graph

Search for Another Location

Airport or City:

Trip Planner

Search our weather history database for the weather conditions in past years. The results will help you decide how hot, cold, wet, or windy it might be!

Date:

Astronomy

Sep. 06, 2014 Rise Set
Actual Time 6:51 AM EDT 7:45 PM EDT
Civil Twilight 6:22 AM EDT 8:14 PM EDT
Nautical Twilight 5:49 AM EDT 8:48 PM EDT
Astronomical Twilight 5:13 AM EDT 9:23 PM EDT
Moon 6:02 PM EDT (9/6) 3:49 AM EDT (9/6)
Length of Visible Light 13h 51m
Length of Day
12h 54m
Waxing Gibbous, 91% of the Moon is Illuminated
Sep 6
Waxing Gibbous
Sep 8
Full
Sep 15
Last Quarter
Sep 24
New
Oct 1
First Quarter

Hourly Weather History & Observations

Time (EDT) Temp. Dew Point Humidity Pressure Visibility Wind Dir Wind Speed Gust Speed Precip Events Conditions
12:26 AM 69.8 °F 66.2 °F 88% 30.03 in 5.0 mi West 5.8 mph - 0.10 in Rain , Thunderstorm Thunderstorms and Rain
12:39 AM 69.8 °F 66.2 °F 88% 30.02 in 4.0 mi Calm Calm - 0.12 in Rain Rain
12:51 AM 70.0 °F 66.0 °F 87% 30.01 in 4.0 mi South 5.8 mph - 0.15 in Rain Rain
1:51 AM 70.0 °F 66.0 °F 87% 29.99 in 10.0 mi South 10.4 mph - 0.07 in Rain Light Rain
2:51 AM 70.0 °F 66.0 °F 87% 29.97 in 10.0 mi SW 8.1 mph - 0.03 in Rain Light Rain
3:51 AM 68.0 °F 64.9 °F 90% 29.91 in 10.0 mi South 6.9 mph - 0.02 in   Scattered Clouds
4:51 AM 68.0 °F 64.4 °F 88% 29.91 in 10.0 mi South 10.4 mph - N/A   Partly Cloudy
5:51 AM 69.1 °F 64.9 °F 87% 29.89 in 10.0 mi South 6.9 mph - 0.00 in Rain Light Rain
6:51 AM 70.0 °F 64.9 °F 84% 29.93 in 10.0 mi SW 10.4 mph - 0.00 in   Overcast
6:59 AM 69.8 °F 64.4 °F 83% 29.95 in 10.0 mi SW 9.2 mph - N/A   Overcast
7:51 AM 70.0 °F 64.9 °F 84% 29.95 in 10.0 mi SW 8.1 mph - 0.00 in Rain Light Rain
8:01 AM 66.2 °F 62.6 °F 88% 29.98 in 10.0 mi North 11.5 mph 18.4 mph 0.00 in Rain Light Rain
8:09 AM 66.2 °F 62.6 °F 88% 29.98 in 10.0 mi NNW 11.5 mph - 0.00 in Rain Light Rain
8:29 AM 66.2 °F 60.8 °F 83% 30.00 in 10.0 mi NNW 9.2 mph - 0.00 in   Overcast
8:51 AM 66.2 °F 60.8 °F 83% 30.01 in 2.5 mi NW 4.6 mph - N/A Rain Light Rain
9:04 AM 66.2 °F 60.8 °F 83% 30.00 in 6.0 mi Calm Calm - 0.00 in Rain Light Rain
9:13 AM 66.2 °F 60.8 °F 83% 30.01 in 10.0 mi Calm Calm - 0.00 in   Overcast
9:51 AM 66.0 °F 61.0 °F 84% 30.00 in 10.0 mi Calm Calm - 0.00 in   Overcast
10:51 AM 66.2 °F 55.4 °F 68% 30.03 in 10.0 mi NW 9.2 mph 16.1 mph N/A   Overcast
11:09 AM 66.2 °F 55.4 °F 68% 30.03 in 10.0 mi WNW 8.1 mph - N/A   Overcast
11:22 AM 66.2 °F 57.2 °F 73% 30.03 in 10.0 mi WNW 4.6 mph - N/A   Overcast
11:51 AM 66.9 °F 57.9 °F 73% 30.03 in 10.0 mi WNW 4.6 mph - N/A   Overcast
12:51 PM 66.9 °F 59.0 °F 76% 30.03 in 10.0 mi NW 6.9 mph - 0.00 in   Overcast
1:46 PM 66.2 °F 57.2 °F 73% 30.04 in 8.0 mi WNW 6.9 mph - 0.01 in Rain Light Rain
1:51 PM 66.2 °F 57.2 °F 73% 30.04 in 10.0 mi WNW 8.1 mph - N/A Rain Light Rain
2:04 PM 66.2 °F 57.2 °F 73% 30.05 in 10.0 mi NW 6.9 mph - 0.00 in Rain Light Rain
2:51 PM 66.0 °F 57.0 °F 73% 30.04 in 10.0 mi NNW 8.1 mph - 0.00 in   Overcast
3:51 PM 68.0 °F 57.2 °F 68% 30.03 in 10.0 mi NW 6.9 mph - N/A   Mostly Cloudy
5:51 PM 69.1 °F 52.0 °F 54% 30.02 in 10.0 mi WNW 11.5 mph 18.4 mph N/A   Clear
6:51 PM 68.0 °F 50.0 °F 52% 30.04 in 10.0 mi NW 10.4 mph - N/A   Scattered Clouds
7:51 PM 66.9 °F 50.0 °F 54% 30.06 in 10.0 mi NNW 9.2 mph - N/A   Scattered Clouds
8:51 PM 66.0 °F 48.0 °F 52% 30.09 in 10.0 mi NNW 8.1 mph - N/A   Clear
9:51 PM 64.9 °F 48.0 °F 54% 30.10 in 10.0 mi NNW 9.2 mph - N/A   Clear
11:51 PM 64.9 °F 48.0 °F 54% 30.12 in 10.0 mi North 3.5 mph - N/A   Clear